Tracking 33165 objects as of 7-Feb-2026
HD Live streaming from Space Station
objects crossing your sky now

STARLINK-34878

Track STARLINK-34878 now!
10-day predictions
STARLINK-34878 is classified as:


NORAD ID: 65334
Int'l Code: 2025-189M
Perigee: 481.5 km
Apogee: 483.1 km
Inclination: 53.2 °
Period: 94.1 minutes
Semi major axis: 6853 km
RCS: Unknown
Launch date: August 27, 2025
Source: United States (US)
Launch site: AIR FORCE EASTERN TEST RANGE (AFETR)
Your satellite tracking list
Your tracking list is empty




NASA's NSSDC Master Catalog

Two Line Element Set (TLE):
1 65334U 25189M   26038.15280790  .00042638  00000-0  14427-2 0  9990
2 65334  53.1593 348.4321 0001134  88.9838 271.1293 15.30216641 26436
Source of the keplerian elements: AFSPC